This is the latest recevied weather packets stored in our database for station/object KK6LVQ-13. If no packets are shown the sender has not sent any weather packets the latest 10 day(s).
| Time | Temp. | Humidity | Pressure | Rain* | Wind** | Luminosity | Snow |
|---|---|---|---|---|---|---|---|
| 1777586700 | 21.11° C | 63% | 1018.5 hPa | 0 mm | - | 688 W/m² | - |
| 1777586396 | 21.11° C | 63% | 1018.5 hPa | 0 mm | - | 697 W/m² | - |
| 1777586095 | 21.67° C | 63% | 1018.6 hPa | 0 mm | - | 707 W/m² | - |
| 1777585793 | 21.11° C | 64% | 1018.7 hPa | 0 mm | - | 713 W/m² | - |
| 1777585488 | 21.67° C | 63% | 1018.7 hPa | 0 mm | - | 721 W/m² | - |
| 1777585184 | 21.67° C | 64% | 1018.8 hPa | 0 mm | - | 727 W/m² | - |
| 1777584880 | 21.67° C | 62% | 1018.5 hPa | 0 mm | - | 733 W/m² | - |
| 1777584578 | 21.67° C | 63% | 1018.7 hPa | 0 mm | - | 738 W/m² | - |
| 1777584275 | 22.22° C | 62% | 1018.8 hPa | 0 mm | - | 746 W/m² | - |
| 1777583975 | 22.22° C | 61% | 1018.7 hPa | 0 mm | - | 751 W/m² | - |
| 1777583670 | 22.22° C | 61% | 1018.9 hPa | 0 mm | - | 756 W/m² | - |
| 1777583370 | 21.67° C | 61% | 1018.8 hPa | 0 mm | - | 762 W/m² | - |
| 1777583063 | 22.22° C | 59% | 1018.7 hPa | 0 mm | - | 769 W/m² | - |
| 1777582761 | 22.22° C | 57% | 1018.8 hPa | 0 mm | - | 775 W/m² | - |
| 1777582451 | 22.22° C | 57% | 1018.7 hPa | 0 mm | - | 781 W/m² | - |
| 1777582151 | 22.78° C | 57% | 1018.9 hPa | 0 mm | - | 782 W/m² | - |
| 1777581850 | 22.78° C | 55% | 1018.8 hPa | 0 mm | - | 782 W/m² | - |
| 1777581550 | 23.33° C | 53% | 1018.8 hPa | 0 mm | - | 782 W/m² | - |
| 1777581244 | 23.33° C | 56% | 1018.6 hPa | 0 mm | - | 782 W/m² | - |
| 1777580939 | 22.78° C | 53% | 1018.7 hPa | 0 mm | - | 787 W/m² | - |
| 1777580634 | 22.78° C | 53% | 1019.1 hPa | 0 mm | - | 790 W/m² | - |
| 1777580329 | 22.78° C | 55% | 1019 hPa | 0 mm | - | 790 W/m² | - |
| 1777580026 | 23.33° C | 57% | 1019 hPa | 0 mm | - | 790 W/m² | - |
| 1777579722 | 22.78° C | 55% | 1019 hPa | 0 mm | - | 791 W/m² | - |
| 1777579420 | 22.22° C | 56% | 1019.1 hPa | 0 mm | - | 790 W/m² | - |
* Rain latest hour (hover to see other rain measurements)
** Current wind speed in m/s (hover to see current wind gust speed)